EW0910 Weather Reports


time (UTC)temp
C
wind
direction
speed
KPH
gust
KPH
rain 1hr
cm
rain 24hr
cm
rain mn
cm
humidity
%
barometer
mb
20260505183031 11 171 6.4 25.7 0.00 0.76 0.76 70 1009.0
20260505181511 11 138 4.8 17.7 0.00 0.76 0.76 71 1008.7
20260505180008 11 128 1.6 22.5 0.00 0.76 0.76 70 1009.0
20260505174507 11 90 4.8 30.6 0.00 0.76 0.76 69 1008.8
20260505173015 11 321 8.0 27.4 0.00 0.76 0.76 69 1008.8
20260505171504 11 153 3.2 14.5 0.00 0.76 0.76 70 1008.6
20260505170008 11 212 1.6 25.7 0.00 0.76 0.76 71 1008.0
20260505164632 12 297 3.2 17.7 0.00 0.76 0.76 72 1007.7
20260505163058 11 43 4.8 30.6 0.00 0.76 0.76 74 1007.4
20260505161600 11 146 1.6 16.1 0.00 0.76 0.76 76 1008.1
20260505160108 11 113 1.6 17.7 0.00 0.76 0.76 77 1008.2
20260505153052 11 38 1.6 17.7 0.00 0.76 0.76 82 1007.9
20260505151550 11 319 1.6 12.9 0.00 0.76 0.76 83 1007.6
20260505124531 11 105 1.6 17.7 0.03 0.71 0.71 85 1006.5
20260505123030 11 71 3.2 14.5 0.00 0.69 0.69 85 1006.4
20260505121526 12 84 0.0 16.1 0.00 0.69 0.69 85 1005.7
20260505120023 12 86 3.2 20.9 0.00 0.69 0.69 85 1005.0
20260505114520 12 79 1.6 14.5 0.00 0.69 0.69 85 1004.9
20260505113018 12 128 3.2 14.5 0.00 0.69 0.69 86 1004.5
20260505111516 13 104 1.6 12.9 0.00 0.69 0.69 87 1004.2
20260505101513 15 121 0.0 0.0 0.00 0.69 0.69 89 1004.1
20260505100007 15 115 0.0 0.0 0.00 0.69 0.69 89 1004.0
20260505094514 15 208 0.0 0.0 0.00 0.69 0.69 89 1004.1
20260505093003 15 208 0.0 0.0 0.00 0.69 0.69 89 1004.0
20260505091501 15 130 0.0 0.0 0.00 0.69 0.69 89 1004.2
20260505090001 15 130 0.0 3.2 0.03 0.69 0.69 88 1003.9
20260505084600 15 262 0.0 9.7 0.03 0.69 0.69 88 1003.6
20260505083100 15 167 0.0 8.0 0.03 0.69 0.69 88 1003.2
20260505081559 15 308 0.0 4.8 0.03 0.69 0.69 88 1003.0
20260505080106 15 150 0.0 6.4 0.00 0.66 0.66 88 1002.2
20260505074555 15 136 0.0 0.0 0.00 0.66 0.66 88 1002.5
20260505073055 15 94 0.0 0.0 0.03 0.66 0.66 88 1001.7
20260505071552 16 200 0.0 4.8 0.10 0.66 0.66 87 1001.8
20260505070055 16 234 1.6 11.3 0.28 0.66 0.66 87 1002.4
20260505064547 16 35 1.6 8.0 0.58 0.66 0.66 87 1001.6
20260505063101 16 92 0.0 12.9 0.64 0.64 0.64 86 1002.9
20260505061544 17 205 0.0 12.9 0.53 0.53 0.53 85 1003.9
20260505060040 17 152 3.2 16.1 0.36 0.36 0.36 84 1004.9
20260505054538 18 234 1.6 16.1 0.08 0.08 0.08 81 1004.8
20260505053032 19 227 0.0 9.7 0.00 0.00 0.00 77 1003.9
20260505051528 20 137 3.2 20.9 0.00 0.00 0.00 72 1003.2
20260505041534 19 238 0.0 6.4 0.00 0.00 0.00 72 1003.6
20260505040036 20 108 0.0 4.8 0.00 0.00 0.00 72 1002.9
20260505034524 20 123 0.0 8.0 0.00 0.00 0.00 72 1003.0
20260505033022 20 109 0.0 4.8 0.00 0.00 0.00 71 1003.6
20260505031534 20 227 0.0 8.0 0.00 0.00 0.00 71 1003.7
20260505030021 20 231 0.0 4.8 0.00 0.00 0.00 70 1003.5
20260505024520 20 133 0.0 8.0 0.00 0.00 0.00 69 1003.5
20260505023019 21 229 0.0 3.2 0.00 0.00 0.00 69 1003.4
20260505021519 21 228 0.0 1.6 0.00 0.00 0.00 68 1003.1
20260505020019 21 74 0.0 8.0 0.00 0.00 0.00 68 1003.0
20260505014520 21 91 0.0 9.7 0.00 0.00 0.00 67 1002.7
20260505013017 21 278 0.0 6.4 0.00 0.00 0.00 66 1002.7
20260505011517 21 106 0.0 9.7 0.00 0.00 0.00 65 1002.4
20260505010023 22 265 0.0 6.4 0.00 0.00 0.00 63 1002.5
20260505004516 22 225 0.0 9.7 0.00 0.00 0.00 62 1002.5
20260505003015 22 238 0.0 9.7 0.00 0.00 0.00 61 1002.5
20260505001515 23 208 0.0 14.5 0.00 0.00 0.00 61 1002.6
20260505000014 23 117 0.0 9.7 0.00 0.00 0.00 60 1002.6
20260504234513 24 219 1.6 19.3 0.00 0.00 0.00 59 1002.5
20260504233013 24 171 0.0 6.4 0.00 0.00 0.00 60 1002.6
20260504231513 25 220 3.2 14.5 0.00 0.00 0.00 59 1002.6
20260504230013 26 196 0.0 14.5 0.00 0.00 0.00 58 1002.6
20260504224515 26 238 1.6 8.0 0.00 0.00 0.00 57 1002.4
20260504223022 27 80 0.0 9.7 0.00 0.00 0.00 56 1002.4
20260504221511 27 194 4.8 19.3 0.00 0.00 0.00 53 1002.3
20260504220015 27 277 1.6 11.3 0.00 0.00 0.00 55 1002.1
20260504214511 27 139 3.2 12.9 0.00 0.00 0.00 55 1002.1
20260504213020 27 220 1.6 11.3 0.00 0.00 0.00 53 1002.3
20260504211507 28 221 1.6 8.0 0.00 0.00 0.00 54 1002.3
20260504210005 28 227 1.6 16.1 0.00 0.00 0.00 56 1002.5
20260504204508 28 245 1.6 11.3 0.00 0.00 0.00 56 1002.7
20260504203002 28 128 4.8 17.7 0.00 0.00 0.00 53 1003.0
20260504201501 28 271 1.6 16.1 0.00 0.00 0.00 52 1003.2
20260504200126 28 221 1.6 16.1 0.00 0.00 0.00 54 1003.3
20260504194602 28 269 0.0 12.9 0.00 0.00 0.00 54 1003.4
20260504193056 27 214 4.8 19.3 0.00 0.00 0.00 51 1003.5
20260504191559 28 227 4.8 22.5 0.00 0.00 0.00 51 1003.6
20260504190053 28 254 6.4 16.1 0.00 0.00 0.00 49 1003.7
20260504184549 27 221 0.0 11.3 0.00 0.00 0.00 53 1004.0